Regional Weather Roundup
Issued by NWS State College, PA

Home | Current Version | Previous Version | Text Only | Print | Product List | Glossary On
Versions: 1 2 3 4 5 6 7 8 9 10 11 12 13 14 15 16 17 18 19 20 21 22 23 24 25 26 27 28 29 30 31 32 33 34 35 36 37 38 39 40 41 42 43 44 45 46 47 48 49 50
000
ASUS41 KCTP 181510
RWRCTP

REGIONAL WEATHER ROUNDUP
NATIONAL WEATHER SERVICE STATE COLLEGE PA
1100 AM EDT THU SEP 18 2014

Note: "fair" indicates few or no clouds below 12,000 feet with no
significant weather and/or obstructions to visibility.

* = STATION THAT DOES NOT REPORT PRECIPITATION /E.G. RAIN...SNOW...ETC/
    THUNDER OR FOG.

PAZ002>004-007>009-013>016-020>023-029>032-181600-
WESTERN PENNSYLVANIA

CITY           SKY/WX    TMP DP  RH WIND       PRES   REMARKS
ERIE           SUNNY     64  52  64 N5        30.09R
MEADVILLE      SUNNY     61  50  67 VRB6      30.10R
FRANKLIN*      SUNNY     57  48  72 N5        30.11R
NEW CASTLE     NOT AVBL
BEAVER COUNTY  SUNNY     63  48  59 N3        30.09R
BUTLER*        SUNNY     61  46  59 N6        30.11R
PITTSBURGH INT MOSUNNY   63  47  55 N12       30.09R
PITTSBURGH     SUNNY     63  45  51 N9        30.08R
INDIANA*       SUNNY     61  48  63 NE8       30.12R
LATROBE        MOSUNNY   61  52  72 CALM      30.10R
WASHINGTON CO* SUNNY     64  48  55 NE8       30.10R
$$

PAZ004>006-010>012-017>019-024>028-033>037-041-042-045-046-049>053-181600-
CENTRAL PENNSYLVANIA

CITY           SKY/WX    TMP DP  RH WIND       PRES   REMARKS
BRADFORD       MOSUNNY   59  47  64 N9        30.09R
DUBOIS         SUNNY     58  46  64 NW9       30.08R
CLEARFIELD     SUNNY     60  50  69 CALM      30.08S
JOHNSTOWN      SUNNY     60  46  59 NE7       30.08R
ALTOONA        SUNNY     63  49  60 N9        30.07S
STATE COLLEGE  MOSUNNY   59  52  77 CALM      30.07R
WILLIAMSPORT   SUNNY     60  50  69 W5        30.04F
SELINSGROVE    SUNNY     63  53  70 CALM      30.05S
FT INDIANTOWN  PTSUNNY   66  54  63 S2        30.03S
CAPITAL CITY   CLOUDY    64  51  62 NW5       30.04R
HARRISBURG     PTSUNNY   66  51  58 W6        30.03R
YORK           PTSUNNY   67  53  61 CALM      30.03R
$$

PAZ038>040-043-044-047-048-054-055-060>062-067>071-181600-
EASTERN PENNSYLVANIA

CITY           SKY/WX    TMP DP  RH WIND       PRES   REMARKS
SCRANTON         N/A     62  47  57 MISG      30.04F
MOUNT POCONO   SUNNY     63  45  51 CALM      30.04F
ALLENTOWN      MOSUNNY   65  50  58 CALM      30.03S
QUAKERTOWN*    PTSUNNY   64  54  68 CALM      30.04S
READING        MOSUNNY   65  50  58 CALM      30.03R
LANCASTER      PTSUNNY   65  52  62 CALM      30.03S
COATESVILLE    PTSUNNY   66  57  72 CALM      30.04S
POTTSTOWN      CLOUDY    62  52  69 CALM      30.04S
BLUE BELL      MOSUNNY   70  55  60 CALM      30.03R
DOYLESTOWN     PTSUNNY   69  52  54 W5        30.02S
WILLOW GROVE   NOT AVBL
NORTH PHILA    PTSUNNY   73  48  41 W8        30.04R
PHILADELPHIA   CLOUDY    71  54  54 VRB3      30.02S
$$



USA.gov is the U.S. government's official web portal to all federal, state and local government web resources and services.